Regional Weather Roundup
Issued by NWS Little Rock, AR

Home | Current Version | Previous Version | Graphics & Text | Print | Product List | Glossary On
Versions: 1 2 3 4 5 6 7 8 9 10 11 12 13 14 15 16 17 18 19 20 21 22 23 24 25 26 27 28 29 30 31 32 33 34 35 36 37 38 39 40 41 42 43 44 45 46 47 48 49 50
000
ASUS44 KLZK 180805
RWRLZK

WEATHER ROUNDUP FOR ARKANSAS
NATIONAL WEATHER SERVICE LITTLE ROCK AR
300 AM CDT SAT APR 18 2015

NOTE: "FAIR" INDICATES FEW OR NO CLOUDS BELOW 12,000 FEET WITH NO
SIGNIFICANT WEATHER AND/OR OBSTRUCTIONS TO VISIBILITY.

ARZ001-003-010-029-180900-
NORTHWEST ARKANSAS

CITY           SKY/WX    TMP DP  RH WIND       PRES   REMARKS
FAYETTEVILLE   CLOUDY    59  58  96 CALM      29.98S
FORT SMITH     CLOUDY    66  62  87 NE7       29.95S
HARRISON       FOG       59  59 100 SE8       29.99F VSB 1/2
BENTONVILLE    CLOUDY    63  59  88 SE5       29.98F
ROGERS         CLOUDY    62  60  93 SE7       29.98F
SILOAM SPGS    CLOUDY    63  55  77 E5        29.98S
HIGHFILL       CLOUDY    62  59  90 E3        29.97F
$$

ARZ004-005-016-180900-
NORTH CENTRAL ARKANSAS

CITY           SKY/WX    TMP DP  RH WIND       PRES   REMARKS
BATESVILLE     CLOUDY    61  59  94 CALM      29.99F VSB 3/4
FLIPPIN        CLOUDY    59 N/A N/A CALM      29.99R VSB 1
MTN HOME       CLOUDY    61  61 100 CALM      29.99F
$$

ARZ040-041-180900-
WEST CENTRAL ARKANSAS

CITY           SKY/WX    TMP DP  RH WIND       PRES   REMARKS
MENA           CLOUDY    64  63  94 CALM      29.97F
MOUNT IDA      CLOUDY    64  61  90 CALM      29.95F
$$

ARZ009-017-025-026-028-180900-
NORTHEAST ARKANSAS

CITY           SKY/WX    TMP DP  RH WIND       PRES   REMARKS
CORNING          N/A     61  61 100 N5        30.00S FOG
JONESBORO      CLOUDY    58  58 100 CALM      29.99R FOG
NEWPORT        CLOUDY    63  63 100 N3        30.00F
WALNUT RIDGE   CLOUDY    63  57  82 CALM      29.99S
BLYTHEVILLE    CLOUDY    59  59 100 CALM      29.99S FOG
$$

ARZ022-023-033-042-044-180900-
CENTRAL ARKANSAS

CITY           SKY/WX    TMP DP  RH WIND       PRES   REMARKS
LITTLE ROCK    CLOUDY    64  60  87 CALM      29.98F
N LITTLE ROCK    N/A     63  63 100 CALM      29.98F
JACKSONVILLE   CLOUDY    60  60  99 CALM      29.97F
SEARCY         MOCLDY    58  58 100 CALM      30.00F FOG
HOT SPRINGS    CLOUDY    64  60  87 E3        29.97F
RUSSELLVILLE   CLOUDY    65  62  90 CALM      29.98F
CLINTON        FOG       57  57 100 CALM      30.02S VSB 1/2
$$

ARZ036-180900-
EAST ARKANSAS

CITY           SKY/WX    TMP DP  RH WIND       PRES   REMARKS
WEST MEMPHIS   CLOUDY    61  61 100 SW3       29.98S
$$

ARZ050-053-066-070-073-180900-
SOUTHWEST ARKANSAS

CITY           SKY/WX    TMP DP  RH WIND       PRES   REMARKS
ARKADELPHIA    FAIR      66  66 100 NE5       29.96F
CAMDEN         CLOUDY    63  59  88 CALM      29.94F
TEXARKANA      CLOUDY    66  64  93 E3        29.93F
EL DORADO      CLOUDY    65  62  90 NE6       29.94F
DE QUEEN       CLOUDY    66  63  90 E3        29.92F
$$

ARZ056-057-069-180900-
SOUTHEAST ARKANSAS

CITY           SKY/WX    TMP DP  RH WIND       PRES   REMARKS
PINE BLUFF     CLOUDY    65  63  93 NE5       29.97F
STUTTGART      CLOUDY    64  61  88 E5        29.98F
MONTICELLO     CLOUDY    64  62  93 CALM      29.96S

$$




USA.gov is the U.S. government's official web portal to all federal, state and local government web resources and services.